Change the Weather History Date:

Thursday, May 2, 2013

  Actual Average Record
Temperature  
Mean Temperature 38 °F 55 °F  
Max Temperature 48 °F 69 °F 94 °F (1965)
Min Temperature 28 °F 41 °F 23 °F (1967)
Degree Days  
Heating Degree Days 27 11  
Month to date heating degree days 55 22  
Since 1 July heating degree days 5805 5677  
Cooling Degree Days 0 0  
Month to date cooling degree days 0 0  
Year to date cooling degree days 0 4  
Moisture  
Dew Point 26 °F    
Average Humidity 67    
Maximum Humidity 100    
Minimum Humidity 34    
Precipitation  
Precipitation T in 0.08 in 1.65 in (1914)
Month to date precipitation 0.19 0.15  
Year to date precipitation 3.28 3.68  
Snow  
Snow T in 0.10 in - ()
Month to date snowfall 3.5 0.1  
Since 1 July snowfall 59.2 35.1  
Snow Depth 4.00 in    
Sea Level Pressure  
Sea Level Pressure 30.62 in    
Wind  
Wind Speed 11 mph (NNW)    
Max Wind Speed 21 mph    
Max Gust Speed 25 mph    
Visibility 9 miles    
Events Snow    
T = Trace of Precipitation, MM = Missing Value Source: NWS Daily Summary

Daily Weather History Graph

Daily Weather History Graph

Search for Another Location

Airport or City:

Trip Planner

Search our weather history database for the weather conditions in past years. The results will help you decide how hot, cold, wet, or windy it might be!

Date:

Astronomy

May. 02, 2013 Rise Set
Actual Time 5:46 AM MDT 7:41 PM MDT
Civil Twilight 5:17 AM MDT 8:10 PM MDT
Nautical Twilight 4:42 AM MDT 8:46 PM MDT
Astronomical Twilight 4:03 AM MDT 9:24 PM MDT
Moon 1:32 AM MDT (5/2) 12:35 PM MDT (5/2)
Length of Visible Light 14h 53m
Length of Day
13h 55m
Waning Gibbous, 47% of the Moon is Illuminated
May 2
Waning Gibbous
May 9
New
May 17
First Quarter
May 24
Full
May 31
Last Quarter

Hourly Weather History & Observations

Time (MDT) Temp. Windchill Dew Point Humidity Pressure Visibility Wind Dir Wind Speed Gust Speed Precip Events Conditions
12:08 AM 28.4 °F 15.4 °F 26.6 °F 93% 30.55 in 7.0 mi North 19.6 mph - 0.00 in Snow Light Snow
12:20 AM 28.4 °F 15.8 °F 26.6 °F 93% 30.56 in 7.0 mi North 18.4 mph - 0.00 in Snow Light Snow
12:53 AM 28.9 °F 16.5 °F 27.0 °F 92% 30.64 in 5.0 mi North 18.4 mph - 0.00 in Snow Light Snow
1:10 AM 28.4 °F 15.8 °F 26.6 °F 93% 30.59 in 5.0 mi North 18.4 mph - 0.00 in Snow Light Snow
1:18 AM 28.4 °F 16.2 °F 28.4 °F 100% 30.59 in 4.0 mi North 17.3 mph - 0.00 in Snow Light Snow
1:53 AM 28.9 °F 18.6 °F 28.0 °F 96% 30.66 in 3.0 mi North 12.7 mph - 0.01 in Snow Light Snow
2:33 AM 28.4 °F 19.1 °F 28.4 °F 100% 30.58 in 5.0 mi North 10.4 mph - 0.00 in Snow Light Snow
2:53 AM 30.0 °F 19.5 °F 28.0 °F 92% 30.65 in 6.0 mi North 13.8 mph - 0.00 in Snow Light Snow
3:53 AM 28.9 °F 21.1 °F 27.0 °F 92% 30.68 in 10.0 mi North 8.1 mph - 0.00 in   Mostly Cloudy
4:53 AM 28.9 °F 19.2 °F 26.1 °F 89% 30.69 in 10.0 mi NW 11.5 mph - N/A   Overcast
5:53 AM 28.0 °F 18.6 °F 25.0 °F 88% 30.71 in 10.0 mi NW 10.4 mph - N/A   Overcast
6:53 AM 28.0 °F 18.1 °F 25.0 °F 88% 30.74 in 10.0 mi NW 11.5 mph - N/A   Overcast
7:53 AM 28.0 °F 18.6 °F 24.1 °F 85% 30.75 in 10.0 mi NW 10.4 mph - N/A   Scattered Clouds
8:53 AM 30.0 °F 20.5 °F 25.0 °F 82% 30.74 in 10.0 mi NW 11.5 mph - N/A   Clear
9:53 AM 33.1 °F 23.4 °F 26.1 °F 75% 30.74 in 10.0 mi NNW 13.8 mph - N/A   Clear
10:53 AM 36.0 °F 27.1 °F 28.0 °F 73% 30.73 in 10.0 mi NNW 13.8 mph - N/A   Clear
11:53 AM 41.0 °F 34.3 °F 30.0 °F 65% 30.71 in 10.0 mi NW 11.5 mph - N/A   Clear
12:53 PM 43.0 °F 36.0 °F 24.1 °F 47% 30.68 in 10.0 mi NNW 13.8 mph - N/A   Clear
1:53 PM 44.1 °F 36.5 °F 23.0 °F 43% 30.66 in 10.0 mi NNW 17.3 mph 21.9 mph N/A   Partly Cloudy
2:53 PM 44.1 °F 37.7 °F 21.9 °F 42% 30.63 in 10.0 mi North 12.7 mph - N/A   Mostly Cloudy
3:53 PM 46.0 °F 39.9 °F 21.9 °F 39% 30.59 in 10.0 mi North 13.8 mph 21.9 mph N/A   Overcast
4:53 PM 48.0 °F - 21.0 °F 34% 30.57 in 10.0 mi NW 18.4 mph - N/A   Scattered Clouds
5:53 PM 46.0 °F 39.9 °F 19.9 °F 35% 30.56 in 10.0 mi NNW 13.8 mph 20.7 mph N/A   Mostly Cloudy
6:53 PM 43.0 °F 38.2 °F 23.0 °F 45% 30.55 in 10.0 mi NNW 8.1 mph - N/A   Clear
7:53 PM 37.9 °F 33.5 °F 30.0 °F 73% 30.55 in 10.0 mi West 5.8 mph - N/A   Clear
8:53 PM 37.0 °F 31.0 °F 28.0 °F 70% 30.54 in 10.0 mi West 8.1 mph - N/A   Clear
9:53 PM 35.1 °F 29.3 °F 27.0 °F 72% 30.53 in 10.0 mi West 6.9 mph - N/A   Clear
10:53 PM 30.0 °F 22.4 °F 24.1 °F 79% 30.51 in 10.0 mi WSW 8.1 mph - N/A   Clear
11:53 PM 30.0 °F 23.2 °F 24.1 °F 79% 30.47 in 10.0 mi West 6.9 mph - N/A   Clear